Meteo Giornale » Osservazioni meteo Gran Bretagna » Londra City AP

ore: 13:20 - Osservazioni Meteo Londra City AP
Lat. 51° 30' N Lon. 0° 30' W Alt. 5 metri s.l.m.

sereno Europe/London

9 °C

Sereno

Temp. 24 Ore

5 °C

13 °C

Sud/Sud-Ovest

20.3 Km/h

Dew point 3 °C

Umidità 66 %

Visibilità  10 Km

Il sole sorge alle ore 07:55

Il sole tramonta alle ore 15:55

Data e Ora Cielo e Fenomeni T °C DP °C Um. % Pres. hPa Vis. km Vento km/h
Oggi h: 13:20 sereno Sereno 9 3 66 1002 10 S/SO 20.3
Oggi h: 12:50 sereno Sereno 9 4 70 1003 10 SO 18.5
Oggi h: 12:20 sereno Sereno 9 4 70 1003 10 S/SO 20.3
Oggi h: 11:50 sereno Sereno 9 4 70 1004 10 S/SO 16.7
Oggi h: 11:20 sereno Sereno 9 4 70 1004 10 S/SO 14.8
Oggi h: 10:50 sereno Sereno 8 4 75 1005 10 SO 13
Oggi h: 10:20 sereno Sereno 8 4 75 1006 10 SO 13
Oggi h: 09:50 sereno Sereno 7 3 75 1006 10 N 11.1
Oggi h: 09:20 sereno Sereno 6 3 81 1006 10 O/SO 7.4
Oggi h: 08:50 sereno Sereno 6 3 81 1006 10 SO 11.1
Oggi h: 08:20 sereno Sereno 6 3 81 1007 10 O/SO 11.1
Oggi h: 07:50 sereno Sereno 5 3 86 1007 10 SO 9.3
Oggi h: 07:20 sereno Sereno 6 3 81 1007 10 S/SO 9.3
Oggi h: 06:50 sereno Sereno 6 3 81 1007 10 O/SO 9.3
Oggi h: 06:20 sereno Sereno 6 3 81 1007 10 O/SO 11.1
Oggi h: 05:50 sereno Sereno 6 3 81 1008 10 O/SO 14.8
Oggi h: 05:20 sereno Sereno 6 3 81 1008 10 O/SO 14.8
Oggi h: 04:50 sereno Sereno 6 3 81 1008 10 O/SO 18.5
Oggi h: 04:20 sereno Sereno 6 3 81 1008 10 O/SO 18.5
Oggi h: 03:50 sereno Sereno 7 4 81 1008 10 O/SO 16.7
Oggi h: 03:20 sereno Sereno 7 4 81 1008 10 O/SO 14.8
Oggi h: 02:50 sereno Sereno 7 4 81 1008 10 O/SO 16.7
Oggi h: 02:20 sereno Sereno 7 4 81 1009 10 O/SO 16.7
Oggi h: 01:50 sereno Sereno 8 4 75 1009 10 O/SO 16.7
Oggi h: 01:20 sereno Sereno 8 4 75 1008 10 O/SO 16.7
Oggi h: 00:50 sereno Sereno 8 4 75 1008 10 O/SO 16.7
Oggi h: 00:20 sereno Sereno 9 5 75 1008 10 O/SO 18.5
Ieri h: 23:50 sereno Sereno 9 6 81 1008 10 O 18.5
Ieri h: 23:20 poco_nuvoloso Poco Nuvoloso 9 6 81 1007 10 O/SO 22.2
Ieri h: 22:50 poco_nuvoloso Poco Nuvoloso 10 7 81 1007 10 O/SO 22.2
Ieri h: 22:20 nuvoloso Nuvoloso 10 7 81 1007 10 O/SO 24
Ieri h: 21:50 coperto_pioggia Pioggia Debole 10 7 81 1006 10 O 24
Ieri h: 21:20 coperto_pioggia Pioggia Debole 10 8 87 1006 10 O 27.8
Ieri h: 20:50 coperto_pioggia Pioggia Debole 11 9 87 1005 8 O 29.6
Ieri h: 20:20 coperto_pioggia Pioggia Debole 12 10 87 1003 5 SO 31.5
Ieri h: 19:50 coperto Coperto 13 10 81 1003 10 S/SO 33.3
Ieri h: 19:20 coperto_pioggia Pioggia Debole 12 10 87 1003 7 S/SO 29.6
Ieri h: 18:50 coperto_pioggia Pioggia Debole 12 10 87 1004 6 S/SO 31.5
Ieri h: 18:20 coperto Coperto 11 9 87 1005 7 S/SO 33.3
Ieri h: 17:50 coperto Coperto 11 9 87 1005 6 S/SO 35.2
Ieri h: 17:20 molto_nuvoloso Molto Nuvoloso 12 9 81 1005 10 S/SO 29.6
Ieri h: 16:50 coperto Coperto 11 9 87 1006 10 S/SO 31.5
Ieri h: 16:20 coperto Coperto 11 9 87 1007 10 S/SO 29.6
Ieri h: 15:50 foschia Foschia 11 8 81 1008 5 S/SO 35.2
Ieri h: 15:20 coperto Coperto 11 8 81 1008 10 S/SO 27.8
Ieri h: 14:50 molto_nuvoloso Molto Nuvoloso 11 8 81 1009 10 S/SO 29.6
Ieri h: 14:20 coperto Coperto 10 8 87 1010 8 S/SO 29.6
Ieri h: 13:50 coperto Coperto 10 8 87 1010 9 S/SO 35.2
Ieri h: 13:20 molto_nuvoloso Molto Nuvoloso 10 8 87 1011 10 S/SO 29.6
Ieri h: 12:50 coperto_pioggia Pioggia 10 7 81 1012 5 S/SO 29.6